SCOUT X-4 R/B, 933

Orbit data source: Space-Track

SCOUT X-4 R/B, 933 is space debris in LEO originally from a launch on Sat, 21 Nov 1964 UTC launched from the Air Force Western Test Range (AFWTR). Debris objects in space refer to the collection of defunct objects orbiting the Earth. Examples of debris include non-operational satellites, rocket bodies, and fragments generated from explosions, collisions, or faulty payload assembly.

Loading next visibility...
Identifier
933, 1964-076C
Orbit
LEO
Country
Flag of USUS
Related business
Manufacturer
ABL
Mission
Spacecraft
Bus & Motor
ALTAIR, Unknown motor
Mass
33 kg wet, 33 kg dry
Launch date (UTC)
1964-11-21 (61 years ago)
Launch vehicle
Unknown
Launch site
Air Force Western Test Range (AFWTR)
Object type
Payload
Rocket body
Debris
Shape & HBR
Unknown
Radar Cross Section
Medium (>0.1 m² and <1 m²)

Expand to show TLE details & history
Last TLE update: 7 hours ago

TLE from 7 hours ago
0 SCOUT X-4 R/B
1   933U 64076C   25343.38374184  .00001605  00000-0  52841-3 0  9998
2   933  81.3355 299.9220 1052551  76.4788 295.1216 12.82012021812257
Epoch: 2025-12-09T09:12Z
TLE epoch observation values (Epoch: 2025-12-09T09:12:35.294Z)
Latitude
-0.00009°
Longitude
83.40572°
Altitude
1,066.016 km
Speed
7.446 km/s
True Right ascension
19h 59m 41s
True Declination
0° 00' 00"
Sunlit
Object was in daylight at epoch
Visualization orbit readout
Latitude
Unknown
Longitude
Unknown
Altitude
Unknown
Speed
Unknown
Apparent Right ascension
Unknown
Apparent Declination
Unknown
Sunlit
N/A
Visualization observer readout
Local Sidereal Time
14:32:47
Azimuth
Unknown
Elevation
Unknown
Doppler factor
Unknown
Orbital elements
Apogee altitude
2,142.084 km
Perigee altitude
519.297 km
Semi-major axis
7,708.828 km
Eccentricity
0.10526
Inclination
81.3355°
RAAN
299.922°
Arg. of periapsis
76.4788°
True anomaly
283.63467°
Mean anomaly
295.1216°
Eccentric anomaly
289.43454°
Mean motion
3.20672 °/min
Orbital period
112.26 mins
BSTAR
0.00052841
Loading maneuver chart data...
Computing Atmospheric mass density...
Loading historical data...
Loading historical data...
Loading historical data...
Loading historical data...
Loading historical data...
Loading historical data...
Loading historical data...

Documentation

Showing up to 5 results
|